Location: STAR School
(35.3054°N, 111.2976°W)
Time: 09:59:20
(UTC-07:00)

PCSat - Visible Passes

Search period start: 21 May 2019 00:00
Search period end: 31 May 2019 00:00
Orbit: 785 x 794 km, 67.1° (Epoch: 20 May)

Date Brightness Start Highest point End Pass type
(mag) Time Alt. Az. Time Alt. Az. Time Alt. Az.
21 May 11.9 01:24:42 10° NW 01:25:23 13° WNW 01:25:23 13° WNW visible
21 May 11.1 23:10:12 10° N 23:14:18 27° NE 23:14:18 27° NE visible
22 May 11.6 00:53:19 10° NW 00:55:00 19° NW 00:55:00 19° NW visible
22 May 11.4 22:39:40 10° N 22:43:41 21° NE 22:43:58 21° NE visible
23 May 11.2 00:22:07 10° NW 00:24:39 27° NW 00:24:39 27° NW visible
23 May 11.6 22:09:22 10° NNE 22:12:30 15° NE 22:13:39 14° ENE visible
23 May 10.8 23:51:02 10° NNW 23:54:20 38° NW 23:54:20 38° NW visible
24 May 11.9 21:39:39 10° NNE 21:41:15 11° NE 21:42:52 10° ENE visible
24 May 10.3 23:20:04 10° NNW 23:24:05 50° NNW 23:24:05 50° NNW visible
25 May 10.1 22:49:12 10° NNW 22:53:50 52° NNE 22:53:50 52° NNE visible
26 May 12.1 00:34:06 10° WNW 00:34:32 11° WNW 00:34:32 11° WNW visible
26 May 10.3 22:18:25 10° NNW 22:23:30 40° ENE 22:23:39 40° ENE visible
27 May 11.6 00:02:22 10° NW 00:04:21 18° WNW 00:04:21 18° WNW visible
27 May 10.7 21:47:43 10° N 21:52:25 29° NE 21:53:29 27° ENE visible
27 May 11.1 23:30:57 10° NW 23:34:11 28° WNW 23:34:11 28° WNW visible
28 May 11.2 21:17:11 10° N 21:21:18 22° NE 21:23:21 18° E visible
28 May 10.3 22:59:43 10° NW 23:04:04 44° W 23:04:04 44° W visible
29 May 11.5 20:46:50 10° NNE 20:50:07 16° NE 20:53:16 10° E visible
29 May 9.6 22:28:38 10° NNW 22:33:58 70° WSW 22:33:58 70° WSW visible
30 May 11.7 20:16:59 10° NNE 20:18:53 12° NE 20:20:47 10° ENE visible
30 May 9.4 21:57:39 10° NNW 22:03:05 83° ENE 22:03:56 64° SE visible
